Weather History for Anchorage, AK

Change the Weather History Date:

Wednesday, June 19, 2013

  Actual Average Record
Temperature  
Mean Temperature 63 °F 56 °F  
Max Temperature 71 °F 64 °F 77 °F (1961)
Min Temperature 54 °F 49 °F 37 °F (1951)
Degree Days  
Heating Degree Days 2    
Month to date heating degree days 123  
Since 1 June heating degree days 123  
Since 1 July heating degree days 10482  
Cooling Degree Days 0    
Month to date cooling degree days 7  
Year to date cooling degree days 7  
Since 1 June cooling degree days 7  
Growing Degree Days 14 (Base 50)    
Moisture  
Dew Point 45 °F    
Average Humidity 52    
Maximum Humidity 66    
Minimum Humidity 38    
Precipitation  
Precipitation 0.00 in 0.04 in 0.50 in (1938)
Month to date precipitation 0.46 0.58  
Year to date precipitation 6.84 3.82  
Snow  
Snow 0.00 in 0.00 in 0.00 in ()
Month to date snowfall 0.0 0.0  
Since 1 June snowfall 0.0  
Since 1 July snowfall 94.0 74.5  
Snow Depth 0.00 in    
Sea Level Pressure  
Sea Level Pressure 29.92 in    
Wind  
Wind Speed 7 mph (SSE)    
Max Wind Speed 15 mph    
Max Gust Speed 23 mph    
Visibility 10 miles    
Events      
T = Trace of Precipitation, MM = Missing Value Source: NWS Daily Summary

Daily Weather History Graph

Daily Weather History Graph

Search for Another Location

Airport:

Trip Planner

Search our weather history database for the weather conditions in past years. The results will help you decide how hot, cold, wet, or windy it might be!

Date:

Astronomy

Jun. 19, 2013 Rise Set
Actual Time 4:21 AM AKDT 11:42 PM AKDT
Civil Twilight 2:33 AM AKDT 1:29 AM AKDT
Nautical Twilight Sun does not rise Sun does not rise
Astronomical Twilight Sun does not rise Sun does not rise
Moon 6:49 PM AKDT (6/19) 2:23 AM AKDT (6/19)
Length of Visible Light 22h 55m
Length of Day
19h 20m
Waxing Gibbous, 82% of the Moon is Illuminated
Jun 19
Waxing Gibbous
Jun 23
Full
Jun 29
Last Quarter
Jul 7
New
Jul 15
First Quarter

Hourly Weather History & Observations

Time (AKDT) Temp. Dew Point Humidity Pressure Visibility Wind Dir Wind Speed Gust Speed Precip Events Conditions
12:53 AM 64.0 °F 42.1 °F 45% 29.90 in 10.0 mi SSE 9.2 mph 19.6 mph N/A   Mostly Cloudy
1:53 AM 64.0 °F 43.0 °F 46% 29.91 in 10.0 mi SE 15.0 mph 23.0 mph N/A   Overcast
2:53 AM 62.1 °F 45.0 °F 53% 29.93 in 10.0 mi SSW 13.8 mph 19.6 mph N/A   Overcast
3:53 AM 59.0 °F 45.0 °F 60% 29.93 in 10.0 mi West 8.1 mph - N/A   Mostly Cloudy
4:53 AM 59.0 °F 44.1 °F 58% 29.92 in 10.0 mi SSW 8.1 mph - N/A   Scattered Clouds
5:53 AM 55.0 °F 45.0 °F 69% 29.92 in 10.0 mi NE 4.6 mph - N/A   Scattered Clouds
6:53 AM 61.0 °F 46.9 °F 60% 29.92 in 10.0 mi Calm Calm - N/A   Mostly Cloudy
7:53 AM 63.0 °F 45.0 °F 52% 29.92 in 10.0 mi ENE 3.5 mph - N/A   Mostly Cloudy
8:53 AM 66.9 °F 45.0 °F 45% 29.91 in 10.0 mi NE 3.5 mph - N/A   Mostly Cloudy
9:53 AM 66.9 °F 43.0 °F 42% 29.91 in 10.0 mi South 5.8 mph - N/A   Mostly Cloudy
10:53 AM 68.0 °F 45.0 °F 43% 29.91 in 10.0 mi SSE 5.8 mph - N/A   Mostly Cloudy
11:53 AM 70.0 °F 45.0 °F 41% 29.89 in 10.0 mi Calm Calm - N/A   Mostly Cloudy
12:53 PM 71.1 °F 45.0 °F 39% 29.90 in 10.0 mi Variable 5.8 mph - N/A   Mostly Cloudy
1:53 PM 68.0 °F 44.1 °F 42% 29.89 in 10.0 mi ESE 8.1 mph - N/A   Mostly Cloudy
2:53 PM 69.1 °F 44.1 °F 40% 29.89 in 10.0 mi SSE 12.7 mph 21.9 mph N/A   Mostly Cloudy
3:53 PM 70.0 °F 46.0 °F 42% 29.91 in 10.0 mi SSE 18.4 mph 31.1 mph N/A   Mostly Cloudy
4:53 PM 66.9 °F 45.0 °F 45% 29.92 in 10.0 mi SSE 20.7 mph 34.5 mph N/A   Mostly Cloudy
5:53 PM 66.9 °F 45.0 °F 45% 29.93 in 10.0 mi SSE 23.0 mph 35.7 mph N/A   Mostly Cloudy
6:53 PM 66.0 °F 45.0 °F 47% 29.94 in 10.0 mi SSE 21.9 mph 34.5 mph N/A   Mostly Cloudy
7:53 PM 66.0 °F 46.0 °F 48% 29.94 in 10.0 mi SSE 23.0 mph 34.5 mph N/A   Mostly Cloudy
8:53 PM 66.9 °F 44.1 °F 44% 29.95 in 10.0 mi SSE 17.3 mph 28.8 mph N/A   Mostly Cloudy
9:53 PM 66.0 °F 45.0 °F 47% 29.95 in 10.0 mi SSE 17.3 mph 28.8 mph N/A   Mostly Cloudy
10:53 PM 64.0 °F 46.0 °F 52% 29.96 in 10.0 mi SSE 20.7 mph 29.9 mph N/A   Mostly Cloudy
11:53 PM 62.1 °F 46.9 °F 58% 29.96 in 10.0 mi South 16.1 mph 25.3 mph N/A   Mostly Cloudy